Hourly Data Report for September 18, 2017

All times are specified in Local Standard Time (LST). Add 1 hour to adjust for Daylight Saving Time where and when it is observed.

ST. PETERS
PRINCE EDWARD ISLAND

46°27'01.000" N
62°34'33.000" W
29.70 m
8300562
71310
ZSP

Download Data

Hourly Data (September 2017)
Hourly Data Report for September 18, 2017
Temp Definition
°C
Dew Point Temp Definition
°C
Rel Hum Definition
%
Wind Dir Definition
10's deg

Wind Spd Definition
km/h
Visibility Definition
km
Stn Press Definition
kPa
Hmdx Definition


Wind Chill Definition


Weather Definition


TIME
00:00 14.6 11.9 84 8 6   102.01     LegendNANA
01:00 14.5 11.9 84 8 6   102.01     LegendNANA
02:00 14.6 11.9 84 7 6   102.02     LegendNANA
03:00 15.0 12.6 86 6 10   102.00     LegendNANA
04:00 14.8 11.9 82 6 14   102.03     LegendNANA
05:00 14.6 12.4 86 7 11   102.06     LegendNANA
06:00 14.0 12.8 93 7 10   102.11     LegendNANA
07:00 13.8 12.6 93 6 11   102.16     LegendNANA
08:00 13.5 12.5 93 6 11   102.21     LegendNANA
09:00 13.7 12.8 94 6 11   102.25     LegendNANA
10:00 15.3 13.9 91 10 8   102.18     LegendNANA
11:00 16.4 14.6 89 14 10   102.19     LegendNANA
12:00 16.7 15.3 92 14 10   102.17     LegendNANA
13:00 17.5 15.9 90 12 4   102.15     LegendNANA
14:00 17.4 15.9 91 8 5   102.16     LegendNANA
15:00 17.7 16.4 92 8 5   102.15     LegendNANA
16:00 18.0 16.5 91 12 4   102.15     LegendNANA
17:00 17.7 16.2 91 12 6   102.17     LegendNANA
18:00 17.3 16.0 92 13 10   102.19     LegendNANA
19:00 17.2 16.1 93 14 8   102.20     LegendNANA
20:00 17.4 16.3 94 14 10   102.23     LegendNANA
21:00 17.4 16.4 94 14 11   102.25     LegendNANA
22:00 17.4 16.4 94 14 8   102.26     LegendNANA
23:00 17.5 16.5 94 15 8   102.26     LegendNANA

Notes on Data Quality.

Legend

  • E = Estimated
  • M = Missing
  • NA = Not Available
  • ‡ = Partner data that is not subject to review by the National Climate Archives
Date modified: